Terminal Aerodrome Forecast
Issued by NWS

Current Version | Previous Version | Graphics & Text | Print | Product List | Glossary On
Versions: 1 2 3 4 5 6 7 8 9 10 11 12 13 14 15 16 17 18 19 20 21 22 23 24 25 26 27 28 29 30 31 32 33 34 35 36 37 38 39 40 41 42 43 44 45 46 47 48 49 50
000
FTUS41 KRNK 211202 AAA
TAFLWB
TAF AMD
KLWB 211202Z 2112/2212 25005KT P6SM VCSH SCT017 OVC045
      TEMPO 2112/2114 1SM BR BKN017
     FM211500 28008G16KT P6SM -SHRA BKN017 OVC027
     FM220000 29008G16KT P6SM -SHRA BKN010 OVC017=

USA.gov is the U.S. government's official web portal to all federal, state and local government web resources and services.